Location: ??????
(55.6500°N, 37.8000°E)
Time: 18:01:27
(UTC+00:00)

FENGYUN 3A - Visible Passes

Search period start: 15 July 2024 00:00
Search period end: 25 July 2024 00:00
Orbit: 822 x 834 km, 98.6° (Epoch: 15 July)

Date Brightness Start Highest point End Pass type
(mag) Time Alt. Az. Time Alt. Az. Time Alt. Az.
15 Jul 5.1 23:04:40 10° NNE 23:09:28 31° E 23:14:15 10° SSE visible
16 Jul 5.5 22:46:34 10° NE 22:50:53 23° E 22:55:10 10° SE visible
17 Jul 5.8 22:28:39 10° NE 22:32:14 18° E 22:35:49 10° SE visible
18 Jul 3.8 00:07:53 10° NNE 00:13:21 83° ESE 00:18:48 10° SSW visible
18 Jul 6.0 22:11:06 10° NE 22:13:33 13° E 22:15:59 10° ESE visible
18 Jul 4.1 23:49:31 10° NNE 23:54:56 63° ESE 00:00:19 10° S visible
19 Jul 4.5 23:31:13 10° NNE 23:36:28 47° E 23:41:42 10° S visible
20 Jul 4.9 23:12:59 10° NNE 23:17:58 35° E 23:22:55 10° SSE visible
21 Jul 5.3 22:54:49 10° NE 22:59:24 27° E 23:03:56 10° SSE visible
22 Jul 5.7 22:36:48 10° NE 22:40:46 20° E 22:44:44 10° SE visible
23 Jul 3.7 00:16:18 10° NNE 00:21:46 87° WNW 00:27:13 10° SSW visible
23 Jul 5.9 22:19:01 10° NE 22:22:07 15° E 22:25:10 10° ESE visible
23 Jul 3.9 23:57:54 10° NNE 00:03:22 72° ESE 00:08:47 10° S visible
24 Jul 6.2 22:02:01 10° ENE 22:03:23 11° E 22:04:46 10° E visible
24 Jul 4.3 23:39:34 10° NNE 23:44:55 54° E 23:50:14 10° S visible
